Regional Weather Roundup
Issued by NWS

Home | Current Version | Previous Version | Text Only | Print | Product List | Glossary On
Versions: 1 2 3 4 5 6 7 8 9 10 11 12 13 14 15 16 17 18 19 20 21 22 23 24 25 26 27 28 29 30 31 32 33 34 35 36 37 38 39 40 41 42 43 44 45 46 47 48 49 50
000
ASUS44 KFWD 230415
RWRTX
NORTH TEXAS HOURLY WEATHER ROUNDUP
NATIONAL WEATHER SERVICE FORT WORTH TX
1000 PM CST WED FEB 22 2017

NOTE: "FAIR" INDICATES FEW OR NO CLOUDS BELOW 12,000 FEET WITH NO
SIGNIFICANT WEATHER AND/OR OBSTRUCTIONS TO VISIBILITY.

TXZ118-119-230500-
DALLAS/FORT WORTH METROPLEX

CITY           SKY/WX    TMP DP  RH WIND       PRES   REMARKS
DFW AIRPORT    CLEAR     65  49  56 SE6       29.71F
DALLAS LOVE    CLEAR     71  48  43 S13       29.73S
FTW MEACHAM    CLEAR     66  48  52 SE7       29.71F
DAL-EXECUTIVE  CLEAR     66  50  56 S6        29.73F
FTW-ALLIANCE   CLEAR     63  49  60 CALM      29.71F
FTW-NAS-JRB    CLEAR     67  49  52 S6        29.72S
FTW-SPINKS     CLEAR     67  47  49 S8        29.74S
GRAND PRAIRIE  CLEAR     66  48  52 SE5       29.74F
ADDISON        CLEAR     68  46  45 SE12      29.73F
MESQUITE       CLEAR     60  46  59 S7        29.74F
LANCASTER      CLEAR     62  47  58 CALM      29.75S
$$

TXZ091>094-102>105-117-120-121-131>134-230500-
NORTH CENTRAL TEXAS

CITY           SKY/WX    TMP DP  RH WIND       PRES   REMARKS
SHRMAN/DENISON CLEAR     66  46  47 S13       29.73S
GAINESVILLE    CLEAR     62  46  56 S5        29.73F
BOWIE          CLEAR     63  45  53 CALM      29.71F
BRIDGEPORT     CLEAR     62  45  53 CALM      29.72F
DECATUR        CLEAR     67  47  47 SE9       29.72S
DENTON         CLEAR     62  49  62 SE9       29.71F
MCKINNEY       CLEAR     59  49  69 S8        29.73F
BONHAM         CLEAR     63  45  51 S10       29.73S
GREENVILLE     CLEAR     57  45  62 S5        29.75S
ROCKWALL       CLEAR     66  46  49 S9        29.74F
TERRELL        CLEAR     62  45  53 S3        29.75F
WAXAHACHIE     CLEAR     61  51  69 S6        29.75F
CLEBURNE       CLEAR     64  50  59 SE7       29.75S
GRANBURY       CLEAR     67  50  52 CALM      29.74S
$$

TXZ083>090-098>101-113>116-127>130-139>142-154-155-230500-
WESTERN NORTH TEXAS

CITY           SKY/WX    TMP DP  RH WIND       PRES   REMARKS
WICHITA FALLS  CLEAR     63  42  46 S7        29.67F
WF-KICKAPOO    CLEAR     60  45  56 SE6       29.69F
VERNON         CLEAR     64  41  42 SE7       29.68F
ABILENE        CLEAR     61  44  53 S8        29.76F
ABILENE-DYESS  CLEAR     65  43  45 W9        29.74F
GRAHAM         CLEAR     64  43  45 S3        29.70R
BRECKENRIDGE   CLEAR     70  40  33 S8        29.72F
CISCO          CLEAR     66  39  37 SW9       29.76S
RANGER         CLEAR     68  43  40 SW7       29.75S
MINERAL WELLS  CLEAR     63  47  55 SE10      29.70F
STEPHENVILLE   CLEAR     65  44  46 CALM      29.77F
COMANCHE       CLEAR     69  40  34 SW8       29.75F
BROWNWOOD      PTCLDY    59  43  55 E3        29.76F
COLEMAN        CLEAR     62  43  49 SW6       29.77F
$$

TXZ143>147-156>162-174-175-230500-
CENTRAL TEXAS

CITY           SKY/WX    TMP DP  RH WIND       PRES   REMARKS
WACO           CLEAR     60  51  72 S6        29.74F
WACO-TSTC      CLEAR     63  50  63 S5        29.75F
WACO-MCGREGOR  CLEAR     59  49  69 S6        29.75F
HILLSBORO      CLEAR     66  51  59 SE8       29.74F
CORSICANA      CLEAR     63  45  51 S10       29.76F
MEXIA          CLEAR     63  42  46 S10       29.76F
HEARNE         CLEAR     65  48  54 SE6       29.78F
CAMERON        CLEAR     68  47  46 S8        29.76F
TEMPLE         CLEAR     66  50  56 S8        29.76F
KILLEEN        CLEAR     69  47  44 S9        29.76F
KILLEEN-SKYLRK CLEAR     64  49  57 S3        29.77F
FORT HOOD      CLEAR     69  48  47 SE5       29.73F
GATESVILLE     CLEAR     70  48  46 S7        29.77F
HAMILTON       CLEAR     61  46  56 S8        29.77F
LAMPASAS       CLEAR     65  50  58 CALM      29.77S
$$

TXZ095>097-106>112-122>126-135>138-148>153-164>167-230500-
EAST TEXAS

CITY           SKY/WX    TMP DP  RH WIND       PRES   REMARKS
PARIS          CLEAR     59  50  72 SE9       29.76S
SULPHUR SPRNGS CLEAR     68  48  48 S8        29.77S
MOUNT PLEASANT CLEAR     62  55  79 SE6       29.78F
GILMER         CLEAR     64  56  78 SE3       29.77F
MINEOLA        CLEAR     61  50  67 SE5       29.76S
TYLER          CLEAR     63  52  67 S9        29.77F
LONGVIEW       CLEAR     65  58  78 S10       29.77F
MARSHALL       CLEAR     60  55  84 CALM      29.81F
ATHENS         CLEAR     57  48  72 CALM      29.76S
PALESTINE      CLEAR     65  50  57 SE3       29.79F
JACKSONVILLE   CLEAR     65  54  67 S6        29.81F
HENDERSON      CLEAR     58  55  89 CALM      29.80F
CENTER         CLEAR     61  59  96 E6        29.82F
NACOGDOCHES    CLEAR     63  55  77 SE5       29.79F
LUFKIN         CLEAR     60  56  86 E3        29.81S
$$

SUPPLEMENTAL OBSERVATIONS (CENTRAL)

CITY           SKY/WX    TMP DP  RH WIND       PRES   REMARKS
DENISON DAM      N/A     64  45  48 E1          N/A
CADDO GRASSLND   N/A     64  45  48 S5          N/A
PAT MAYSE LAKE   N/A     66  50  55 E9          N/A
GREENVILLE       N/A     64  43  45 S5          N/A
CEDAR HILL       N/A     70  46  43 SE9         N/A
ATHENS           N/A     64  50  59 SE5         N/A
LAKE LIMESTONE   N/A     64  41  42 SE3         N/A
MCGREGOR         N/A     61  48  63 SW3         N/A
TEMPLE           N/A     66  46  48 SE6         N/A
$$

SUPPLEMENTAL OBSERVATIONS (WEST)

CITY           SKY/WX    TMP DP  RH WIND       PRES   REMARKS
MILLERS CREEK    N/A     63  48  59 SW9         N/A
POSSUM KINGDOM   N/A     68  41  37 S7          N/A
LBJ GRASSLAND    N/A     68  46  45 SE9         N/A
GRANBURY         N/A     66  48  52 E3          N/A
COMANCHE         N/A     70  37  30 SW8         N/A
HAMBY            N/A     63  45  51 S9          N/A
IVIE RESERVOIR   N/A     63  43  48 S5          N/A
COLORADO BEND    N/A     66  41  39 SW3         N/A
$$

SUPPLEMENTAL OBSERVATIONS (EAST)

CITY           SKY/WX    TMP DP  RH WIND       PRES   REMARKS
CLARKSVILLE      N/A     63  55  77 SE8         N/A
TEXARKANA        N/A     57  55  94 SE2         N/A
LINDEN           N/A     59  55  88 CALM        N/A
CADDO LAKE       N/A    N/A N/A N/A S1          N/A
GILMER           N/A     63  55  77 SE3         N/A
HENDERSON        N/A     61  57  88 S2          N/A
LUFKIN           N/A     57  54  88 MISG        N/A
N SABINE NF      N/A     57  55  94 MISG        N/A
S SABINE NF      N/A     54  52  94 CALM        N/A
$$

SUPPLEMENTAL OBSERVATIONS ARE A COLLECTION OF AUTOMATED INSTRUMENTS
THAT ARE MAINTAINED BY A VARIETY OF FEDERAL AND STATE AGENCIES.
CERTAIN ELEMENTS...SUCH AS HUMIDITY VALUES AND SUSTAINED WIND
SPEEDS...MAY BE APPROXIMATED.




USA.gov is the U.S. government's official web portal to all federal, state and local government web resources and services.